[[{"header":{"parameterUnit":"m.s-1","parameterCategory":1,"la1":30.2991,"la2":30.254,"lo1":-89.0895,"lo2":-89.0444,"dy":0.0017,"dx":0.0017,"nx":28,"ny":28,"refTime":"2023-10-23T09:00:00:Z","depth":0,"parameterNumber":2,"parameterNumberName":"U-component_of_WINDS"},"data":[0,0,0,0,0,0,0,0,0,0,0,0,0,0,0,0,0,0,0,0,0,0,0,0,0,0,0,0,0,0,0,0,0,0,0,0,0,0,0,0,0,0,0,0,0,0,0,0,0,0,0,0,0,0,0,0,0,0,-8.0134,-8.0135,0,-8.0187,-8.0188,-8.0189,-8.0104,-8.0101,-8.0098,-8.0096,-8.0145,-8.0149,-8.0153,0,0,0,0,0,0,0,0,0,0,0,0,0,-7.9959,-7.9963,-8.0134,-8.0135,-8.0136,-8.0187,-8.0188,-8.0189,-8.0105,-8.0101,-8.0098,-8.0094,-8.0144,-8.0149,-8.0154,0,0,0,0,0,0,0,0,0,0,0,0,0,-8.0026,-7.9964,-8.0134,-8.01,-8.0098,-8.0187,-8.0188,-8.0189,-8.0105,-8.0101,-8.0097,-8.0093,-8.0143,-8.0148,-8.0154,-8.0279,0,0,-8.0173,-8.0175,0,0,0,0,0,0,0,0,-8.0022,-8.0033,-8.0104,-8.0103,-8.01,-8.0135,-8.0144,-8.0219,-8.0106,-8.0102,-8.0095,-8.009,-8.0145,-8.0151,-8.017,-8.0281,-8.0283,-8.0173,-8.0177,-8.018,-8.0181,0,0,0,0,0,0,0,-8.0018,-8.003,-8.0155,-8.0106,-8.0103,-8.0082,-8.0086,-8.0158,-8.0147,-8.0102,-8.0096,-8.0104,-8.0143,-8.0164,-8.0171,-8.0284,-8.0173,-8.0179,-8.0182,-8.0185,-8.0501,-8.0506,0,0,0,0,0,0,-8.0018,-8.0027,-8.0153,-8.0157,-8.005,-8.0088,-8.0094,-8.0128,-8.0146,-8.0145,-8.0108,-8.01,-8.0156,-8.0164,-8.0172,-8.0318,-8.018,-8.0185,-8.0189,-8.0497,-8.0502,-8.0508,0,0,0,0,0,0,-8.0014,-8.003,-8.0151,-8.009,-8.0104,-8.0096,-8.0135,-8.0131,-8.0152,-8.015,-8.0148,-8.0131,-8.0153,-8.0163,-8.0253,-8.0319,-8.0188,-8.0193,-8.0491,-8.0498,-8.0505,-8.0612,0,0,0,0,0,0,-8.001,-8.0029,-8.0076,-8.0092,-8.0108,-8.0232,-8.0139,-8.0135,-8.0164,-8.0154,-8.0172,-8.0171,-8.015,-8.0245,-8.0259,-8.0325,-8.0198,-8.0485,-8.0494,-8.0503,-8.0603,-8.0622,-8.0639,0,0,0,0,0,-8.0004,-8.0103,-8.0079,-8.0094,-8.0166,-8.0236,-8.0245,-8.0221,-8.0169,-8.0216,-8.0216,-8.017,-8.0311,-8.0255,-8.027,-8.0339,-8.048,-8.0492,-8.0502,-8.0594,-8.0618,-8.0638,0,0,0,0,0,0,-8.0091,-8.0104,-8.0077,-8.0185,-8.0211,-8.0222,-8.0279,-8.0247,-8.0286,-8.0275,-8.0243,-8.0247,-8.0344,-8.0351,-8.0288,-8.0461,-8.0387,-8.0401,-8.0452,-8.0474,-8.0492,-8.0486,-8.0203,0,0,0,0,0,-8.0124,-8.0181,-8.0188,-8.0282,-8.0297,-8.0287,-8.0316,-8.0296,-8.0321,-8.033,-8.0336,-8.0361,-8.0411,-8.0444,-8.0489,-8.0606,-8.0608,-8.0661,-8.0679,-8.0694,-8.0705,-8.0767,-8.0791,-8.0543,-8.0543,-8.0543,0,0,-8.019,-8.0204,-8.0241,-8.03,-8.0318,-8.0377,-8.0296,-8.0361,-8.0404,-8.034,-8.0424,-8.0431,-8.0457,-8.0561,-8.0607,-8.0569,-8.0775,-8.0707,-8.0719,-8.0722,-8.0781,-8.0804,-8.0825,-8.055,-8.0549,-8.0548,0,0,-8.034,-8.0357,-8.0437,-8.0458,-8.0487,-8.0481,-8.0501,-8.0519,-8.0521,-8.0607,-8.056,-8.0612,-8.0698,-8.0719,-8.074,-8.0906,-8.0865,-8.0922,-8.1014,-8.1076,-8.1095,-8.1112,-8.1169,-8.119,-8.0934,-8.0935,-8.0935,0,-8.0417,-8.0504,-8.0482,-8.0552,-8.0579,-8.0528,-8.0609,-8.063,-8.0672,-8.0692,-8.0651,-8.0761,-8.0774,-8.0882,-8.0924,-8.0944,-8.0965,-8.0916,-8.1094,-8.1111,-8.1127,-8.1181,-8.1203,-8.0941,-8.094,-8.094,-8.0939,0,-8.0598,-8.066,-8.0722,-8.0766,-8.0802,-8.0877,-8.0866,-8.0904,-8.0884,-8.0882,-8.0971,-8.0987,-8.1036,-8.1061,-8.104,-8.1168,-8.1144,-8.11,-8.1023,-8.1157,-8.1207,-8.1228,-8.095,-8.0948,-8.0946,-8.0944,0,0,-8.0797,-8.0833,-8.0856,-8.0876,-8.0908,-8.0955,-8.103,-8.1079,-8.1112,-8.1146,-8.1206,-8.1284,-8.1244,-8.1269,-8.1251,-8.1306,-8.1435,-8.1255,-8.1255,-8.1285,-8.1576,-8.1606,-8.163,-8.1411,-8.1415,-8.1418,-8.1573,0,-8.0945,-8.1073,-8.1058,-8.118,-8.1237,-8.1193,-8.1258,-8.1285,-8.1287,-8.1336,-8.1338,-8.1393,-8.1337,-8.1352,-8.1405,-8.1408,-8.1492,-8.1397,-8.1465,-8.1467,-8.1455,-8.1656,-8.1688,-8.1832,-8.1592,-8.1596,-8.1598,0,-8.1131,-8.1174,-8.1303,-8.1329,-8.1352,-8.141,-8.1456,-8.1505,-8.1535,-8.1533,-8.1565,-8.1538,-8.1613,-8.1541,-8.1643,-8.1579,-8.1607,-8.1613,-8.1618,-8.1619,-8.1537,-8.166,-8.1878,-8.1898,-8.1629,-8.1627,-8.1624,0,-8.1261,-8.1351,-8.144,-8.1459,-8.1492,-8.1534,-8.1549,-8.1576,-8.1608,-8.1649,-8.167,-8.1719,-8.1745,-8.1784,-8.1772,-8.1721,-8.1877,-8.1803,-8.1876,-8.1876,-8.1905,-8.1903,-8.2127,-8.1931,-8.1931,-8.1931,-8.193,0,-8.1424,-8.1504,-8.1499,-8.1552,-8.1642,-8.1626,-8.1714,-8.1724,-8.1749,-8.1804,-8.1771,-8.1823,-8.1807,-8.1859,-8.1851,-8.1936,-8.1949,-8.1949,-8.1944,-8.1949,-8.1949,-8.1963,-8.1951,-8.1936,-8.1935,-8.1934,-8.1933,0,-8.158,-8.158,-8.1674,-8.17,-8.1709,-8.1773,-8.1794,-8.1846,-8.1849,-8.1919,-8.1935,-8.1938,-8.1998,-8.1993,-8.2059,-8.2054,-8.2159,-8.2145,-8.2149,-8.2144,-8.2216,-8.2208,-8.2454,-8.2484,-8.2272,-8.2274,-8.2276,0,-8.1682,-8.1743,-8.1777,-8.1813,-8.1832,-8.189,-8.1924,-8.1913,-8.1949,-8.1992,-8.2038,-8.2096,-8.2141,-8.2239,-8.2247,-8.2299,-8.2283,-8.2366,-8.229,-8.2294,-8.2281,-8.2276,-8.2281,-8.2379,-8.2381,-8.2383,-8.2385,0,-8.1862,-8.186,-8.1911,-8.1964,-8.2006,-8.2047,-8.2083,-8.2115,-8.2107,-8.2151,-8.2213,-8.2249,-8.2319,-8.2377,-8.2427,-8.2442,-8.2412,-8.241,-8.2429,-8.2431,-8.243,-8.2429,-8.2186,-8.2403,-8.2401,-8.24,-8.2399,-8.2398,-8.1991,-8.2044,-8.2077,-8.2136,-8.2164,-8.22,-8.225,-8.2262,-8.2314,-8.2371,-8.2363,-8.2433,-8.2465,-8.253,-8.2551,-8.2606,-8.2575,-8.2603,-8.2609,-8.2615,-8.2623,-8.2427,-8.2615,-8.2615,-8.2614,-8.2614,-8.2613,0,-8.2166,-8.2188,-8.2243,-8.2297,-8.2344,-8.2317,-8.2358,-8.2398,-8.246,-8.2494,-8.2541,-8.2614,-8.2672,-8.2687,-8.2742,-8.2783,-8.2771,-8.2797,-8.2791,-8.2795,-8.2648,-8.2624,-8.2806,-8.2806,-8.2806,-8.2806,-8.2806,-8.2806,-8.2263,-8.2351,-8.2354,-8.2457,-8.2477,-8.2547,-8.2572,-8.2606,-8.2633,-8.2717,-8.2765,-8.2776,-8.2803,-8.2861,-8.2913,-8.2916,-8.2936,-8.2968,-8.2965,-8.2825,-8.2806,-8.2787,-8.2765,-8.2973,-8.2973,-8.3108,-8.3109,-8.311]},{"header":{"parameterUnit":"m.s-1","parameterCategory":1,"la1":30.2991,"la2":30.254,"lo1":-89.0895,"lo2":-89.0444,"dy":0.0017,"dx":0.0017,"nx":28,"ny":28,"refTime":"2023-10-23T09:00:00:Z","depth":0,"parameterNumber":3,"parameterNumberName":"V-component_of_WINDS"},"data":[0,0,0,0,0,0,0,0,0,0,0,0,0,0,0,0,0,0,0,0,0,0,0,0,0,0,0,0,0,0,0,0,0,0,0,0,0,0,0,0,0,0,0,0,0,0,0,0,0,0,0,0,0,0,0,0,0,0,1.9152,1.9153,0,1.9241,1.9242,1.9243,1.9367,1.9369,1.9372,1.9374,1.9454,1.9455,1.9455,0,0,0,0,0,0,0,0,0,0,0,0,0,1.9085,1.9085,1.9152,1.9153,1.9155,1.9241,1.9242,1.9243,1.9367,1.937,1.9372,1.9375,1.9454,1.9455,1.9455,0,0,0,0,0,0,0,0,0,0,0,0,0,1.9137,1.9086,1.9152,1.9227,1.9235,1.924,1.9242,1.9243,1.9366,1.937,1.9373,1.9376,1.9454,1.9455,1.9455,1.9392,0,0,1.9455,1.9456,0,0,0,0,0,0,0,0,1.9134,1.914,1.9215,1.9222,1.923,1.9297,1.9248,1.9293,1.9366,1.9316,1.9374,1.9377,1.9399,1.9404,1.9413,1.9395,1.9399,1.9455,1.9456,1.9456,1.9456,0,0,0,0,0,0,0,1.913,1.9137,1.9187,1.9216,1.9225,1.9254,1.9265,1.9257,1.9338,1.9321,1.933,1.9339,1.9403,1.9412,1.9416,1.94,1.9455,1.9456,1.9456,1.9456,1.9339,1.9336,0,0,0,0,0,0,1.9117,1.9133,1.9184,1.919,1.919,1.9253,1.9265,1.9272,1.9338,1.9352,1.9336,1.9345,1.941,1.9415,1.9419,1.9353,1.9456,1.9456,1.9456,1.9342,1.9339,1.9335,0,0,0,0,0,0,1.9115,1.912,1.9181,1.9164,1.9174,1.9251,1.9257,1.9272,1.9281,1.935,1.9365,1.9331,1.9413,1.9419,1.9399,1.9357,1.9456,1.9456,1.9346,1.9341,1.9337,1.9216,0,0,0,0,0,0,1.9112,1.9119,1.9097,1.9163,1.9174,1.9161,1.9254,1.9271,1.9282,1.9294,1.9349,1.9361,1.9416,1.9398,1.9399,1.9359,1.9456,1.935,1.9344,1.9338,1.9224,1.9208,1.9194,0,0,0,0,0,1.911,1.9056,1.9095,1.91,1.9149,1.9158,1.9165,1.9232,1.9278,1.9256,1.9302,1.9359,1.9361,1.9395,1.9397,1.9356,1.9353,1.9346,1.9339,1.9231,1.9211,1.9194,0,0,0,0,0,0,1.8978,1.9066,1.911,1.9077,1.911,1.9179,1.9153,1.9207,1.9225,1.9235,1.9314,1.9326,1.9297,1.9324,1.9361,1.9301,1.9366,1.9359,1.9284,1.9265,1.925,1.9244,1.9457,0,0,0,0,0,1.8947,1.8949,1.9024,1.8988,1.9003,1.9075,1.9081,1.9131,1.9167,1.918,1.9224,1.9254,1.9262,1.9265,1.9276,1.9229,1.9244,1.9202,1.9187,1.9174,1.9167,1.9148,1.9131,1.9311,1.9311,1.9311,0,0,1.8879,1.8927,1.8923,1.8963,1.8994,1.8994,1.9085,1.908,1.9081,1.9178,1.9164,1.9197,1.9236,1.9204,1.9192,1.9226,1.9121,1.9165,1.9154,1.9154,1.9138,1.9121,1.9106,1.9306,1.9307,1.9308,0,0,1.8756,1.8792,1.8768,1.8799,1.8847,1.8896,1.889,1.8953,1.898,1.8968,1.9043,1.9043,1.9054,1.908,1.9095,1.8987,1.9042,1.8988,1.8908,1.8888,1.8874,1.8862,1.8825,1.8811,1.8981,1.898,1.898,0,1.8665,1.8671,1.8747,1.874,1.8756,1.8849,1.8825,1.8849,1.8896,1.8905,1.8944,1.8963,1.8996,1.8973,1.8947,1.8955,1.8951,1.8982,1.887,1.8859,1.8849,1.8815,1.88,1.8974,1.8974,1.8975,1.8976,0,1.8558,1.856,1.8534,1.8583,1.8596,1.8579,1.8653,1.8656,1.8705,1.875,1.8738,1.8781,1.8804,1.8802,1.8847,1.8786,1.8806,1.8856,1.8924,1.8823,1.8793,1.878,1.8964,1.8966,1.8968,1.897,0,0,1.8352,1.8448,1.8437,1.8462,1.8524,1.8527,1.8515,1.8542,1.8544,1.8574,1.8566,1.8576,1.8625,1.8641,1.8691,1.8673,1.8588,1.8726,1.8728,1.87,1.8525,1.8488,1.8472,1.8625,1.8623,1.8621,1.8523,0,1.8243,1.8232,1.8302,1.8271,1.8276,1.8366,1.8356,1.8392,1.8434,1.8442,1.8488,1.8495,1.8557,1.8568,1.8555,1.8601,1.8554,1.8609,1.8618,1.8617,1.8606,1.8456,1.8415,1.832,1.8511,1.8509,1.8508,0,1.8113,1.8142,1.8112,1.818,1.8184,1.8174,1.8207,1.8214,1.8257,1.8289,1.831,1.8369,1.8361,1.8426,1.8417,1.8453,1.8461,1.8484,1.8482,1.8486,1.8556,1.8456,1.8291,1.8278,1.8489,1.8491,1.8492,0,1.7969,1.8,1.7988,1.8006,1.8083,1.8075,1.8106,1.8153,1.8166,1.8193,1.8202,1.8226,1.8239,1.8256,1.832,1.836,1.8303,1.8373,1.8329,1.8328,1.8313,1.8313,1.8148,1.8316,1.8316,1.8316,1.8317,0,1.784,1.7819,1.7925,1.7917,1.7897,1.7978,1.7954,1.7994,1.8036,1.8037,1.8114,1.8113,1.8197,1.8205,1.8254,1.8241,1.8245,1.827,1.8284,1.8264,1.8261,1.8271,1.8279,1.8313,1.8314,1.8314,1.8315,0,1.7676,1.7746,1.7739,1.7815,1.7833,1.7815,1.7879,1.7875,1.7924,1.7924,1.7928,1.8003,1.8017,1.8083,1.811,1.8144,1.8113,1.8139,1.81,1.8109,1.8063,1.8067,1.7899,1.7882,1.8058,1.8057,1.8055,0,1.7589,1.7576,1.7652,1.7661,1.769,1.7701,1.7717,1.7796,1.7808,1.7859,1.7848,1.7869,1.789,1.7908,1.7963,1.7985,1.8013,1.7953,1.8017,1.7999,1.8015,1.8015,1.8015,1.7939,1.7937,1.7935,1.7933,0,1.7429,1.7466,1.7486,1.752,1.7537,1.7565,1.7599,1.76,1.7689,1.7698,1.7716,1.7732,1.7764,1.7784,1.7816,1.7847,1.7904,1.7913,1.7905,1.7885,1.7864,1.7877,1.8064,1.7917,1.7918,1.7919,1.792,1.7921,1.7303,1.7297,1.7351,1.7372,1.7407,1.7437,1.7438,1.7489,1.7506,1.7541,1.7586,1.7598,1.7643,1.7694,1.772,1.773,1.7762,1.7749,1.7746,1.7742,1.7733,1.7862,1.7735,1.7736,1.7737,1.7737,1.7737,0,1.7149,1.7189,1.7208,1.7255,1.7272,1.7329,1.737,1.7379,1.739,1.743,1.7451,1.7472,1.7492,1.7551,1.7578,1.7574,1.7601,1.7578,1.758,1.7586,1.7701,1.7707,1.7556,1.7556,1.7556,1.7556,1.7556,1.7556,1.7071,1.7065,1.7108,1.712,1.7161,1.7176,1.7195,1.7223,1.7256,1.7278,1.7297,1.7337,1.7384,1.7416,1.7437,1.7454,1.746,1.7429,1.7454,1.756,1.7577,1.7594,1.76,1.7429,1.7429,1.7338,1.7338,1.7337]}]]